Regional Weather Roundup
Issued by NWS

Home | Current Version | Previous Version | Text Only | Print | Product List | Glossary On
Versions: 1 2 3 4 5 6 7 8 9 10 11 12 13 14 15 16 17 18 19 20 21 22 23 24 25 26 27 28 29 30 31 32 33 34 35 36 37 38 39 40 41 42 43 44 45 46 47 48 49 50
000
ASUS46 KSEW 272210
RWRWA

WASHINGTON REGIONAL WEATHER ROUNDUP
NATIONAL WEATHER SERVICE SEATTLE WA
300 PM PDT FRI MAR 27 2015

NOTE:"FAIR" INDICATES FEW OR NO CLOUDS BELOW 12,000 FEET WITH NO
SIGNIFICANT WEATHER AND/OR OBSTRUCTIONS TO VISIBILITY.

WAZ505-507>509-272300-
SEATTLE, TACOMA, EVERETT, AND VICINITY

CITY           SKY/WX    TMP DP  RH WIND       PRES   REMARKS
EVERETT        CLOUDY    66  50  56 S15G23    29.96F
BOEING FIELD   PTSUNNY   68  51  54 S7        29.96F
RENTON         PTSUNNY   68  50  52 SW9       29.96F
SEATAC AIRPORT PTSUNNY   64  51  62 W10       29.98F
JBLM-MCCHORD   PTSUNNY   64  54  71 W14       29.97F
PUYALLUP       FAIR      72  55  56 W8        29.96F
BREMERTON      PTSUNNY   64  48  55 SW16G25   29.99F
JBLM-FT LEWIS  PTSUNNY   62  54  74 W14       29.97F
TACOMA NARROWS PTSUNNY   62  48  60 W8        29.99F
$$

WAZ001-503-506-510-514-515-272300-
NORTH INTERIOR

CITY           SKY/WX    TMP DP  RH WIND       PRES   REMARKS
BELLINGHAM     CLOUDY    60  50  69 S8        29.94F
FRIDAY HARBOR  MOSUNNY   59  51  75 E6        29.96F
EASTSOUND      PTSUNNY   59  52  77 S13       29.93F
PORT ANGELES   MOSUNNY   61  49  64 N8        29.96F
NAS WHIDBEY    PTSUNNY   58  50  75 VRB5      29.96F
ARLINGTON      CLOUDY    68  52  56 S13G21    29.96F
BURLINGTON       N/A     64  52  63 MISG      29.94F
$$

WAZ020-022-039-040-504-511-512-272300-
SOUTHWEST INTERIOR

CITY           SKY/WX    TMP DP  RH WIND       PRES   REMARKS
SHELTON        PTSUNNY   62  49  62 S18G24    29.98F
OLYMPIA        PTSUNNY   65  49  56 SW14      29.98F
CHEHALIS       MOCLDY    66  52  59 VRB3      30.00S
KELSO          CLOUDY    63  52  67 NW6       30.05S
VANCOUVER      MOSUNNY   68  51  54 W7        30.01F
SCAPPOOSE, OR  PTSUNNY   69  54  58 S7        30.00F
PORTLAND, OR   PTSUNNY   71  54  54 S10       30.01F
$$

WAZ021-516-517-272300-
WASHINGTON COAST

CITY           SKY/WX    TMP DP  RH WIND       PRES   REMARKS
FORKS          CLOUDY    53  52  96 S12G21    29.97F FOG
HOQUIAM        CLOUDY    55  52  89 S13       30.03F FOG
ASTORIA, OR    CLOUDY    57  51  80 S15G21    30.04F
$$

WAZ019-023-024-040-518-519-272300-
CASCADE MOUNTAINS AND COLUMBIA GORGE

CITY           SKY/WX    TMP DP  RH WIND       PRES   REMARKS
TROUTDALE, OR  SUNNY     71  53  52 SW13G21   30.00F
THE DALLES, OR SUNNY     75  51  43 NW5       29.94F
$$

WAZ026-027-041>044-520-521-272300-
EAST SLOPES

CITY           SKY/WX    TMP DP  RH WIND       PRES   REMARKS
OMAK           PTSUNNY   68  49  50 S8        29.95F
WENATCHEE      PTSUNNY   68  48  48 VRB5      29.95F
ELLENSBURG     MOSUNNY   72  49  44 CALM      29.95F
YAKIMA         SUNNY     75  50  41 CALM      29.94F
$$

WAZ028-034-035-272300-
COLUMBIA BASIN

CITY           SKY/WX    TMP DP  RH WIND       PRES   REMARKS
EPHRATA        MOSUNNY   69  51  52 S7        29.95F
MOSES LAKE     SUNNY     69  48  47 W5        29.97F
PASCO          SUNNY     73  52  47 CALM      29.94F
HERMISTON, OR  SUNNY     75  50  41 W8        29.93F
$$

WAZ036>038-272300-
NORTHEAST WASHINGTON

CITY           SKY/WX    TMP DP  RH WIND       PRES   REMARKS
SPOKANE GEIGER MOSUNNY   70  48  45 S10       29.98F
SPOKANE FELTS  MOSUNNY   71  50  47 CALM      29.98F
FAIRCHILD AFB  NOT AVBL
COEURDALENE,ID SUNNY     70  52  52 NW3       29.98F
DEER PARK      SUNNY     67  48  50 CALM      29.99F
$$

WAZ029>033-272300-
SOUTHEAST WASHINGTON

CITY           SKY/WX    TMP DP  RH WIND       PRES   REMARKS
PULLMAN        SUNNY     70  47  43 CALM      30.03F
LEWISTON, ID   SUNNY     74  52  46 NW8       29.96F
WALLA WALLA    SUNNY     74  51  44 CALM      29.96F
PENDLETON, OR  SUNNY     73  51  46 NW10      29.95F
$$



USA.gov is the U.S. government's official web portal to all federal, state and local government web resources and services.